This is the latest recevied weather packets stored in our database for station/object DO0SOB-11. If no packets are shown the sender has not sent any weather packets the latest 10 day(s).
| Time | Temp. | Humidity | Pressure | Rain* | Wind** | Luminosity | Snow |
|---|---|---|---|---|---|---|---|
| 1777599867 | 8.33° C | 100% | 988 hPa | - | - | - | - |
| 1777598967 | 8.33° C | 100% | 988.1 hPa | - | - | - | - |
| 1777598067 | 8.33° C | 100% | 988.2 hPa | - | - | - | - |
| 1777597167 | 7.78° C | 100% | 988.4 hPa | - | - | - | - |
| 1777596267 | 8.33° C | 100% | 988.5 hPa | - | - | - | - |
| 1777595367 | 8.33° C | 100% | 988.6 hPa | - | - | - | - |
| 1777594467 | 8.89° C | 100% | 988.6 hPa | - | - | - | - |
| 1777593567 | 8.33° C | 100% | 988.8 hPa | - | - | - | - |
| 1777592666 | 8.89° C | 100% | 988.7 hPa | - | - | - | - |
| 1777591766 | 8.89° C | 100% | 988.7 hPa | - | - | - | - |
| 1777590866 | 9.44° C | 100% | 988.7 hPa | - | - | - | - |
| 1777589966 | 9.44° C | 100% | 988.5 hPa | - | - | - | - |
| 1777589066 | 9.44° C | 100% | 988.6 hPa | - | - | - | - |
| 1777588166 | 9.44° C | 100% | 988.6 hPa | - | - | - | - |
| 1777587266 | 9.44° C | 100% | 988.8 hPa | - | - | - | - |
| 1777586366 | 8.89° C | 100% | 988.8 hPa | - | - | - | - |
| 1777585466 | 9.44° C | 100% | 988.9 hPa | - | - | - | - |
| 1777584566 | 8.89° C | 100% | 988.9 hPa | - | - | - | - |
| 1777583666 | 9.44° C | 100% | 988.9 hPa | - | - | - | - |
| 1777582766 | 9.44° C | 100% | 988.8 hPa | - | - | - | - |
| 1777581866 | 10° C | 100% | 988.8 hPa | - | - | - | - |
| 1777580966 | 10.56° C | 96% | 988.8 hPa | - | - | - | - |
| 1777580066 | 11.11° C | 88% | 988.6 hPa | - | - | - | - |
| 1777579166 | 10.56° C | 90% | 988.6 hPa | - | - | - | - |
| 1777578265 | 10.56° C | 89% | 988.6 hPa | - | - | - | - |
* Rain since midnight (hover to see other rain measurements)
** Current wind speed in m/s (hover to see current wind gust speed)